Stations météo

réclame
Mon MeteoGroup
Lycksele, Suède (2261): Température de l'air & dewpoint: 10.08.2018 21:00:00 - 16.08.2018 21:00:00 (CEST)Lycksele, Suède (2261): Vitesse du vent & gusts: 10.08.2018 21:00:00 - 16.08.2018 21:00:00 (CEST)Lycksele, Suède (2261): Direction du vent: 10.08.2018 21:00:00 - 16.08.2018 21:00:00 (CEST)Lycksele, Suède (2261): reduced air pressure: 10.08.2018 21:00:00 - 16.08.2018 21:00:00 (CEST)Lycksele, Suède (2261): visibility: 10.08.2018 21:00:00 - 16.08.2018 21:00:00 (CEST)Lycksele, Suède (2261): Quantités de précipitations: 10.08.2018 21:00:00 - 16.08.2018 21:00:00 (CEST)
Date & Time tt [°C] td [°C] ff [km/h] ff [knt] fx [km/h] fx [knt] dd ppp [hPa] vv [km] rr [mm]
16.08.2018 21:00:00 17,2 13,9 15 8 30 16 SE 1007,8 50 0,0
16.08.2018 20:00:00 17,4 13,9 16 8 29 16 SSE 1008,0 49 0,0
16.08.2018 19:00:00 17,7 13,6 16 8 29 15 SSE 1008,5 50 0,0
16.08.2018 18:00:00 18,1 13,2 17 9 29 15 SSE 1008,6 50 0,0
16.08.2018 17:00:00 18,3 12,3 19 10 34 18 SSE 1008,9 50 0,0
16.08.2018 16:00:00 19,1 12,6 16 8 30 16 SSE 1008,8 50 0,0
16.08.2018 15:00:00 19,4 12,2 20 11 36 20 SSE 1008,8 47 0,0
16.08.2018 14:00:00 19,8 11,8 19 10 42 23 SSE 1009,0 35 0,0
16.08.2018 13:00:00 18,5 12,0 19 10 33 18 SSE 1009,3 50 0,0
16.08.2018 12:00:00 18,1 11,9 18 10 35 19 SSE 1009,6 49 0,0
16.08.2018 11:00:00 18,5 11,8 17 9 34 18 SSE 1009,8 48 0,0
16.08.2018 10:00:00 17,2 12,1 14 7 29 16 SSE 1010,2 50 0,0
16.08.2018 09:00:00 16,8 12,3 17 9 25 14 SE 1010,3 47 0,0
16.08.2018 08:00:00 14,2 11,7 14 7 23 13 SE 1011,0 50 0,0
16.08.2018 07:00:00 12,9 11,1 13 7 22 12 SE 1011,2 50 0,0
16.08.2018 06:00:00 11,6 10,8 15 8 22 12 SE 1011,4 49 0,0
16.08.2018 05:00:00 10,1 9,5 16 8 24 13 SE 1011,2 50 0,0
16.08.2018 04:00:00 11,1 9,2 18 10 24 13 ESE 1011,5 50 0,0
16.08.2018 03:00:00 11,1 8,5 17 9 22 12 ESE 1011,3 50 0,0
16.08.2018 02:00:00 11,0 7,7 14 8 22 12 SE 1011,5 50 0,0
16.08.2018 01:00:00 11,2 6,9 13 7 26 14 SSE 1011,9 50 0,0
16.08.2018 00:00:00 11,5 6,8 17 9 25 14 SE 1011,7 50 0,0
15.08.2018 23:00:00 12,0 6,9 14 8 25 14 SE 1011,6 50 0,0
15.08.2018 22:00:00 13,3 7,3 14 8 25 13 SSE 1011,3 50 0,0
15.08.2018 21:00:00 14,5 8,2 13 7 22 12 SSE 1011,1 50 0,0
15.08.2018 20:00:00 15,5 8,9 9 5 17 9 SSE 1010,6 50 0,0
15.08.2018 19:00:00 17,4 8,5 13 7 23 13 SSE 1010,5 48 0,0
15.08.2018 18:00:00 17,9 7,6 13 7 23 12 SE 1010,5 50 0,0
15.08.2018 17:00:00 17,9 7,3 15 8 24 13 SE 1010,3 49 0,0
15.08.2018 16:00:00 18,1 7,2 14 8 22 12 SE 1010,8 39 0,0
15.08.2018 15:00:00 16,7 7,3 10 5 26 14 SE 1011,0 50 0,0
15.08.2018 14:00:00 16,8 7,2 11 6 26 14 SSE 1011,0 50 0,0
15.08.2018 13:00:00 15,6 6,3 16 8 24 13 SSE 1010,9 36 0,0
15.08.2018 12:00:00 15,5 7,3 14 7 21 12 ESE 1011,0 47 0,0
15.08.2018 11:00:00 14,4 8,1 13 7 19 10 SE 1011,4 45 0,0
15.08.2018 10:00:00 12,8 8,1 11 6 15 8 ESE 1011,6 50 0,0
15.08.2018 09:00:00 11,5 8,4 8 4 14 7 SE 1011,5 48 0,0
15.08.2018 08:00:00 10,5 7,9 11 6 16 8 SE 1011,3 50 0,0
15.08.2018 07:00:00 10,1 8,2 11 6 14 8 SE 1011,3 50 0,0
15.08.2018 06:00:00 8,5 8,1 3 2 9 5 SSW 1011,4 50 0,0
15.08.2018 05:00:00 7,0 7,0 3 1 5 3 S 1011,5 50 0,0
15.08.2018 04:00:00 7,0 7,0 0 0 4 2 N 1011,5 50 0,0
15.08.2018 03:00:00 7,8 7,5 0 0 9 5 N 1011,5 50 0,0
15.08.2018 02:00:00 9,3 7,7 6 3 8 5 SSE 1011,3 50 0,0
15.08.2018 01:00:00 8,9 8,0 0 0 2 1 N 1011,5 50 0,0
15.08.2018 00:00:00 9,1 8,0 0 0 4 2 N 1011,3 50 0,0
14.08.2018 23:00:00 8,8 7,9 2 1 4 2 S 1011,0 50 0,0
14.08.2018 22:00:00 10,3 8,9 2 1 4 2 SSE 1010,9 50 0,0
14.08.2018 21:00:00 11,0 8,2 0 0 5 3 N 1010,7 50 0,0
14.08.2018 20:00:00 12,5 7,0 3 2 5 3 S 1010,4 50 0,0
14.08.2018 19:00:00 13,5 6,1 2 1 7 4 S 1010,2 50 0,0
14.08.2018 18:00:00 13,7 5,1 0 0 7 4 N 1010,2 50 0,0
14.08.2018 17:00:00 13,7 4,6 3 2 8 4 SSE 1010,2 50 0,0
14.08.2018 16:00:00 13,8 4,7 0 0 8 4 N 1010,3 50 0,0
14.08.2018 15:00:00 13,6 4,5 3 2 9 5 W 1010,3 45 0,0
14.08.2018 14:00:00 13,7 4,3 4 2 8 5 ENE 1010,1 47 0,0
14.08.2018 13:00:00 13,8 3,6 4 2 11 6 ENE 1009,9 46 0,0
14.08.2018 12:00:00 13,6 5,0 6 3 13 7 NNW 1009,9 50 0,0
14.08.2018 11:00:00 13,0 4,7 3 2 17 9 N 1009,9 49 0,0
14.08.2018 10:00:00 12,5 4,7 10 5 18 10 WNW 1009,8 50 0,0
14.08.2018 09:00:00 12,2 5,4 8 4 18 10 N 1009,6 41 0,0
14.08.2018 08:00:00 11,5 5,8 9 5 16 9 NW 1009,5 50 0,0
14.08.2018 07:00:00 9,5 5,9 2 1 8 4 WSW 1009,7 50 0,0
14.08.2018 06:00:00 8,6 5,7 4 2 8 5 WSW 1009,8 50 0,0
14.08.2018 05:00:00 8,4 5,7 3 2 8 4 WSW 1009,4 50 0,0
14.08.2018 04:00:00 8,2 5,8 4 2 7 4 SW 1009,2 50 0,0
14.08.2018 03:00:00 8,4 5,7 3 2 12 6 W 1008,9 50 0,0
14.08.2018 02:00:00 8,0 5,6 2 1 8 4 W 1008,6 50 0,0
14.08.2018 01:00:00 8,4 5,7 4 2 10 5 W 1008,4 50 0,0
14.08.2018 00:00:00 6,0 5,4 3 1 5 3 S 1008,2 50 0,0
13.08.2018 23:00:00 7,5 5,6 3 1 10 5 SSW 1007,8 50 0,0
13.08.2018 22:00:00 10,7 5,9 9 5 19 10 W 1007,2 50 0,0
13.08.2018 21:00:00 12,1 5,9 10 5 23 13 W 1006,5 50 0,0
13.08.2018 20:00:00 14,2 5,5 12 7 27 14 WNW 1005,7 50 0,0
13.08.2018 19:00:00 14,9 5,4 12 6 21 12 WNW 1005,4 50 0,0
13.08.2018 18:00:00 15,2 4,8 13 7 33 18 WNW 1005,3 45 0,0
13.08.2018 17:00:00 15,6 5,5 14 7 31 17 WNW 1005,1 47 0,0
13.08.2018 16:00:00 15,4 4,8 21 11 33 18 NW 1004,9 49 0,0
13.08.2018 15:00:00 15,4 5,3 22 12 37 20 WNW 1004,7 46 0,0
13.08.2018 14:00:00 15,2 6,0 11 6 35 19 WNW 1004,5 50 0,0
13.08.2018 13:00:00 14,9 6,5 20 11 33 18 NW 1004,3 47 0,0
13.08.2018 12:00:00 14,1 6,2 14 8 34 18 WNW 1004,2 50 0,0
13.08.2018 11:00:00 14,0 6,8 26 14 39 21 NNW 1003,8 49 0,0
13.08.2018 10:00:00 13,1 6,9 28 15 41 22 NW 1003,3 48 0,0
13.08.2018 09:00:00 12,6 8,3 19 10 32 17 NW 1002,7 45 0,0
13.08.2018 08:00:00 11,3 9,0 10 5 23 12 NW 1002,4 50 0,1
13.08.2018 07:00:00 9,7 9,2 14 8 29 16 NW 1002,4 6 0,0
13.08.2018 06:00:00 10,2 8,5 19 10 29 16 NW 1001,8 10 0,0
13.08.2018 05:00:00 10,6 7,5 13 7 26 14 WNW 1001,3 50 0,0
13.08.2018 04:00:00 10,9 6,8 13 7 24 13 WNW 1001,2 50 0,0
13.08.2018 03:00:00 10,0 6,5 10 5 22 12 WNW 1001,1 50 0,0
13.08.2018 02:00:00 10,5 6,6 14 8 26 14 WNW 1001,0 50 0,0
13.08.2018 01:00:00 11,1 6,8 13 7 29 16 WNW 1001,1 50 0,0
13.08.2018 00:00:00 11,3 7,4 16 9 25 14 WNW 1001,1 50 0,0
12.08.2018 23:00:00 11,5 7,8 18 10 26 14 WNW 1001,0 42 0,0
12.08.2018 22:00:00 12,1 7,2 13 7 27 15 WNW 1001,1 50 0,0
12.08.2018 21:00:00 12,4 7,3 14 8 25 14 WNW 1001,4 50 0,0
12.08.2018 20:00:00 13,1 6,9 16 8 32 17 NW 1001,7 50 0,0
12.08.2018 19:00:00 14,0 6,8 19 11 34 18 NW 1001,5 50 0,0
12.08.2018 18:00:00 14,5 6,1 16 9 27 15 NW 1001,6 50 0,0
12.08.2018 17:00:00 14,4 6,2 17 9 39 21 W 1002,0 50 0,0
12.08.2018 16:00:00 14,7 6,3 15 8 37 20 W 1002,2 50 0,0
12.08.2018 15:00:00 15,6 6,1 17 9 30 16 WNW 1002,3 49 0,0
12.08.2018 14:00:00 15,4 5,9 13 7 27 15 WNW 1002,8 50 0,0
12.08.2018 13:00:00 15,1 5,3 16 8 29 15 WNW 1003,1 50 0,0
12.08.2018 12:00:00 14,8 6,1 13 7 29 16 WNW 1003,6 46 0,0
12.08.2018 11:00:00 15,4 6,1 14 8 37 20 WNW 1003,9 44 0,0
12.08.2018 10:00:00 14,1 6,0 16 9 37 20 WNW 1004,1 36 0,0
12.08.2018 09:00:00 13,2 6,1 11 6 30 16 WNW 1004,7 38 0,0
12.08.2018 08:00:00 11,5 6,2 12 7 25 13 W 1005,5 36 0,0
12.08.2018 07:00:00 9,6 6,3 8 4 17 9 W 1006,1 40 0,0
12.08.2018 06:00:00 8,0 5,8 7 4 18 10 W 1006,6 46 0,0
12.08.2018 05:00:00 4,8 4,8 2 1 8 5 WNW 1007,4 26 0,0
12.08.2018 04:00:00 6,1 4,9 3 2 14 8 W 1007,5 48 0,0
12.08.2018 03:00:00 6,1 5,5 5 3 12 6 WSW 1007,9 37 0,0
12.08.2018 02:00:00 8,0 5,6 7 4 11 6 W 1008,1 50 0,0
12.08.2018 01:00:00 8,6 6,2 4 2 9 5 WNW 1008,3 50 0,0
12.08.2018 00:00:00 9,7 5,9 5 3 13 7 WNW 1008,6 50 0,0
11.08.2018 23:00:00 9,7 5,7 4 2 10 6 W 1008,8 50 0,0
11.08.2018 22:00:00 11,0 5,1 2 1 17 9 WSW 1008,9 50 0,0
11.08.2018 21:00:00 12,8 5,0 5 3 37 20 W 1008,3 50 0,0
11.08.2018 20:00:00 14,7 4,7 16 9 52 28 W 1008,0 49 0,0
11.08.2018 19:00:00 15,8 5,1 19 11 39 21 W 1007,5 41 0,0
11.08.2018 18:00:00 16,3 5,9 16 9 43 23 W 1007,5 44 0,0
11.08.2018 17:00:00 16,1 5,7 21 11 54 29 W 1007,0 50 0,0
11.08.2018 16:00:00 17,0 6,2 23 12 55 30 WSW 1006,1 38 0,0
11.08.2018 15:00:00 17,1 6,6 17 9 49 26 W 1005,2 39 0,0
11.08.2018 14:00:00 17,0 7,1 23 13 53 29 WSW 1004,3 31 0,0
11.08.2018 13:00:00 16,9 7,8 17 9 61 33 WSW 1003,4 38 0,0
11.08.2018 12:00:00 15,9 7,9 20 11 48 26 WSW 1002,4 46 0,0
11.08.2018 11:00:00 15,8 7,8 16 9 36 19 WSW 1001,1 47 0,0
11.08.2018 10:00:00 14,6 9,6 13 7 41 22 SW 1000,1 50 0,0
11.08.2018 09:00:00 13,4 10,0 14 7 31 17 S 999,5 47 0,0
11.08.2018 08:00:00 13,9 8,7 13 7 33 18 SSE 998,6 50 0,0
11.08.2018 07:00:00 13,4 9,8 15 8 27 15 SSE 998,7 50 0,0
11.08.2018 06:00:00 13,1 10,6 13 7 24 13 SSE 998,8 47 0,0
11.08.2018 05:00:00 12,8 11,0 11 6 23 12 SSE 999,5 47 0,0
11.08.2018 04:00:00 12,4 11,5 9 5 15 8 SSE 999,8 49 0,0
11.08.2018 03:00:00 13,1 11,7 8 4 16 9 SSE 1000,0 49 0,0
11.08.2018 02:00:00 12,3 12,3 4 2 14 8 SSE 1000,5 34 0,0
11.08.2018 01:00:00 15,8 12,7 9 5 22 12 SSE 1000,4 50 0,0
11.08.2018 00:00:00 17,9 17,6 12 7 21 12 SSE 1000,1 14 0,0
10.08.2018 23:00:00 18,4 18,4 10 6 22 12 SSE 1000,4 9 0,0
10.08.2018 22:00:00 18,3 18,3 11 6 18 10 SE 1001,0 13 0,0
10.08.2018 21:00:00 18,7 18,4 11 6 23 13 SSE 1001,6 13 0,0

tt = Température de l'air
td = dewpoint
ff = Vitesse du vent
fx = gusts
dd = Direction du vent
ppp = reduced air pressure
vv = visibility
rr = Quantités de précipitations

stations d'obs. à proximité